Tracking 29892 objects as of 21-Nov-2024
HD Live streaming from Space Station
objects crossing your sky now

NORSAT 2

Track NORSAT 2 now!
10-day predictions


NORAD ID: 42828
Int'l Code: 2017-042D
Perigee: 545.8 km
Apogee: 563.6 km
Inclination: 97.4 °
Period: 95.6 minutes
Semi major axis: 6925 km
RCS: Unknown
Launch date: July 14, 2017
Source: (TBD)
Launch site: TYURATAM MISSILE AND SPACE COMPLEX (TTMTR)
Your satellite tracking list
Your tracking list is empty




NASA's NSSDC Master Catalog

Two Line Element Set (TLE):
1 42828U 17042D   24325.59714589  .00016612  00000-0  11312-2 0  9998
2 42828  97.3765 144.5365 0012796 240.9245 119.0702 15.06285885400925
Source of the keplerian elements: AFSPC